Location: Chagrin Falls Park
(41.4139°N, 81.3865°W)
Time: 22:47:53
(UTC+00:00)

STARLINK-2754 - Pass Details

Date: 31 July 2021
Orbit: 546 x 548 km, 53.1° (Epoch: 20 September)

Event Time Altitude Azimuth Distance (km) Brightness Sun altitude
Rises 02:37:56 0° 300° (WNW) 2,719 8.6 -18.0°
Reaches altitude 10° 02:40:22 10° 289° (WNW) 1,822 7.2 -18.3°
Maximum altitude 02:43:57 29° 229° (SW) 1,019 4.9 -18.8°
Enters shadow 02:45:04 25° 200° (SSW) 1,120 4.9 -18.9°
